EW2485 Weather Reports


Display with metric or nautical units.
time (UTC)temp
F
wind
direction
speed
MPH
gust
MPH
rain 1hr
in
rain 24hr
in
rain mn
in
humidity
%
barometer
mb
20260903204549 79 117 5.0 8.0 0.00 0.97 0.06 85 1012.0
20260903203023 79 54 3.0 6.0 0.00 0.97 0.06 86 1012.2
20260903201532 78 314 4.0 7.0 0.00 0.97 0.06 86 1012.3
20260903200011 78 300 5.0 10.0 0.00 0.97 0.06 85 1012.4
20260903194549 78 324 5.0 12.0 0.00 0.97 0.06 85 1012.3
20260903193031 78 327 4.0 8.0 0.00 0.97 0.06 85 1012.3
20260903191553 79 269 4.0 7.0 0.00 0.97 0.06 85 1012.4
20260903190013 79 340 6.0 11.0 0.00 0.97 0.06 84 1012.6
20260903184545 79 326 6.0 11.0 0.00 0.97 0.06 85 1012.6
20260903183055 80 331 4.0 17.0 0.00 0.97 0.06 84 1012.8
20260903181516 79 250 5.0 11.0 0.00 0.97 0.06 86 1012.9
20260903180039 78 222 4.0 13.0 0.00 0.97 0.06 87 1012.9
20260903174507 77 295 5.0 10.0 0.00 0.97 0.06 87 1013.2
20260903173032 76 1 3.0 9.0 0.00 0.97 0.06 88 1013.2
20260903171548 78 316 3.0 12.0 0.00 0.97 0.06 87 1013.1
20260903170039 78 233 8.0 13.0 0.00 0.97 0.06 88 1013.1
20260903164524 77 259 4.0 17.0 0.00 0.97 0.06 89 1013.3
20260903163045 76 295 4.0 10.0 0.00 0.97 0.06 90 1013.4
20260903161514 76 210 6.0 14.0 0.00 0.97 0.06 89 1013.5
20260903160038 75 220 3.0 13.0 0.00 0.99 0.06 90 1013.7
20260903154542 73 252 2.0 6.0 0.00 0.99 0.06 92 1013.9
20260903153100 73 269 2.0 7.0 0.00 0.99 0.06 91 1014.1
20260903153002 73 241 1.0 7.0 0.00 0.99 0.06 91 1014.1
20260903151524 72 178 1.0 7.0 0.00 0.99 0.06 91 1014.1
20260903150053 73 190 3.0 10.0 0.00 1.29 0.06 91 1014.1
20260903144559 72 197 1.0 6.0 0.00 1.29 0.06 91 1013.9
20260903143018 72 117 1.0 9.0 0.00 1.29 0.06 92 1013.9
20260903141542 71 331 1.0 4.0 0.00 1.29 0.06 92 1013.8
20260903140035 71 209 2.0 8.0 0.00 1.35 0.06 93 1013.9
20260903134504 71 171 5.0 12.0 0.00 1.35 0.06 95 1013.9
20260903133046 70 219 3.0 6.0 0.00 1.35 0.06 95 1013.9
20260903131516 70 117 1.0 5.0 0.00 1.35 0.06 96 1014.0
20260903130042 69 170 2.0 5.0 0.00 1.35 0.06 97 1014.0
20260903124559 69 173 2.0 6.0 0.00 1.35 0.06 96 1014.3
20260903123026 68 229 2.0 6.0 0.00 1.35 0.06 96 1014.1
20260903121601 68 178 2.0 4.0 0.00 1.35 0.06 96 1014.2
20260903120011 68 178 1.0 2.0 0.00 1.35 0.06 97 1014.0
20260903114534 67 178 0.0 3.0 0.00 1.35 0.06 97 1014.0
20260903113051 65 223 0.0 2.0 0.00 1.35 0.06 96 1013.7
20260903111515 65 206 0.0 2.0 0.00 1.35 0.06 95 1013.4
20260903110037 65 178 0.0 3.0 0.00 1.35 0.06 96 1013.3
20260903104604 66 250 0.0 3.0 0.00 1.35 0.06 96 1013.2
20260903104502 65 223 0.0 3.0 0.00 1.35 0.06 96 1013.2
20260903103026 65 178 0.0 2.0 0.00 1.35 0.06 96 1013.3
20260903101550 65 234 1.0 4.0 0.00 1.35 0.06 96 1013.3
20260903100035 65 213 1.0 5.0 0.00 1.35 0.06 96 1013.5
20260903094507 65 165 0.0 4.0 0.00 1.35 0.06 96 1013.5
20260903093058 65 223 1.0 5.0 0.00 1.35 0.06 95 1013.5
20260903091517 65 178 0.0 3.0 0.00 1.35 0.06 95 1013.4
20260903090039 65 178 1.0 3.0 0.00 1.35 0.06 95 1013.2
20260903084602 65 178 0.0 3.0 0.00 1.35 0.06 95 1013.3
20260903083022 65 89 0.0 2.0 0.01 1.35 0.06 96 1013.2
20260903081538 65 223 1.0 5.0 0.01 1.35 0.06 96 1013.3
20260903080055 65 178 2.0 7.0 0.01 1.35 0.06 95 1013.4
20260903074515 65 184 2.0 9.0 0.01 1.35 0.06 95 1013.4
20260903073039 65 178 1.0 8.0 0.00 1.34 0.05 95 1013.7
20260903071555 65 184 3.0 10.0 0.00 1.34 0.05 95 1013.5
20260903070029 65 178 3.0 9.0 0.00 1.34 0.05 95 1013.7
20260903064518 65 168 1.0 9.0 0.00 1.34 0.05 95 1013.5
20260903063052 66 170 4.0 8.0 0.00 1.34 0.05 95 1013.6
20260903061531 66 117 2.0 7.0 0.00 1.34 0.05 95 1013.8
20260903054521 66 187 3.0 8.0 0.01 1.34 0.05 95 1014.0
20260903053044 66 167 4.0 11.0 0.01 1.34 0.05 95 1013.8
20260903051606 66 152 4.0 13.0 0.03 1.34 0.05 95 1013.7
20260903050025 66 174 3.0 7.0 0.05 1.34 0.05 95 1014.0
20260903044543 66 147 5.0 11.0 0.06 1.33 0.04 95 1014.0
20260903043013 66 171 4.0 16.0 0.13 1.32 0.04 95 1014.0
20260903041535 66 178 5.0 13.0 0.20 1.31 0.02 95 1014.1
20260903040056 65 172 3.0 8.0 0.19 1.29 1.29 95 1014.4
20260903034514 66 178 3.0 8.0 0.19 1.26 1.26 95 1015.5
20260903033052 66 178 3.0 9.0 0.16 1.20 1.20 95 1016.2
20260903031522 66 223 2.0 10.0 0.10 1.11 1.11 94 1014.2
20260903030046 66 178 3.0 10.0 0.13 1.10 1.10 94 1014.2
20260903024554 65 173 4.0 12.0 0.14 1.07 1.07 94 1014.8
20260903023033 65 169 3.0 11.0 0.19 1.04 1.04 94 1015.4
20260903021510 65 178 0.0 3.0 0.62 1.01 1.01 93 1015.4
20260903020046 65 269 1.0 3.0 0.57 0.97 0.97 93 1015.6
20260903014524 66 173 3.0 12.0 0.54 0.93 0.93 92 1015.0
20260903013044 67 149 2.0 22.0 0.46 0.85 0.85 91 1016.6
20260903011510 70 343 4.0 10.0 0.01 0.39 0.39 93 1016.3
20260903010035 70 150 4.0 13.0 0.01 0.39 0.39 93 1015.0
20260903004553 70 144 5.0 12.0 0.01 0.39 0.39 93 1014.6
20260903003018 71 178 6.0 18.0 0.01 0.39 0.39 92 1014.1
20260903001542 71 146 8.0 16.0 0.00 0.38 0.38 92 1014.0
20260903000104 71 161 6.0 13.0 0.00 0.38 0.38 92 1014.1
20260903000005 71 135 6.0 13.0 0.00 0.38 0.38 92 1014.1
20260902234523 71 131 6.0 14.0 0.00 0.38 0.38 92 1014.7
20260902233057 72 127 5.0 19.0 0.00 0.38 0.38 92 1014.2
20260902231539 72 79 7.0 14.0 0.00 0.38 0.38 91 1013.8
20260902230026 73 175 7.0 15.0 0.00 0.38 0.38 91 1014.2
20260902224606 73 151 5.0 15.0 0.00 0.38 0.38 91 1014.2
20260902223021 74 177 5.0 12.0 0.00 0.38 0.38 90 1013.9
20260902221537 74 217 6.0 17.0 0.00 0.38 0.38 90 1013.7
20260902220059 75 155 4.0 14.0 0.00 0.38 0.38 90 1013.9
20260902214532 75 146 6.0 12.0 0.00 0.38 0.38 89 1014.2
20260902213035 76 189 6.0 15.0 0.00 0.38 0.38 89 1014.5
20260902211554 75 181 7.0 13.0 0.00 0.38 0.38 90 1014.5
20260902210015 75 202 4.0 14.0 0.00 0.38 0.38 90 1015.0